ATLAS 5 CENTAUR DEB, 55857

Orbit data source: Space-Track

ATLAS 5 CENTAUR DEB, 55857 is space debris in HEO originally from a launch on Wed, 17 Oct 2018 UTC launched from the Air Force Eastern Test Range (AFETR). Debris objects in space refer to the collection of defunct objects orbiting the Earth. Examples of debris include non-operational satellites, rocket bodies, and fragments generated from explosions, collisions, or faulty payload assembly.

Loading next visibility...
Identifier
55857, 2018-079HK
Orbit
HEO
Country
Flag of USUS
Related business
Flag of USUnited Launch Alliance/Lockheed Martin (US)
Manufacturer
ULA Decatur
Mission
Spacecraft
Bus & Motor
Unknown
Mass
Unknown
Launch date (UTC)
2018-10-17 (8 years ago)
Launch vehicle
Unknown
Launch site
Air Force Eastern Test Range (AFETR)
Object type
Payload
Rocket body
Debris
Shape & HBR
Unknown shape, 1.1 m
Radar Cross Section
RCS unknown

Expand to show TLE details & history
Last TLE update: 2 days ago

TLE from 2 days ago
0 ATLAS 5 CENTAUR DEB
1 55857U 18079HK  26206.91133597 -.00000076  00000-0  00000-0 0  9993
2 55857  13.7872 345.0267 4556311  56.0048 339.3589  2.00192913 27494
Epoch: 2026-07-25T21:52Z
TLE epoch observation values (Epoch: 2026-07-25T21:52:19.427Z)
Latitude
0.0001°
Longitude
73.36993°
Altitude
10,441.061 km
Speed
5.693 km/s
True Right ascension
23h 00m 16s
True Declination
0° 00' 00"
Sunlit
Object was in daylight at epoch
Visualization orbit readout
Latitude
Unknown
Longitude
Unknown
Altitude
Unknown
Speed
Unknown
Apparent Right ascension
Unknown
Apparent Declination
Unknown
Sunlit
N/A
Visualization observer readout
Local Sidereal Time
09:22:02
Azimuth
Unknown
Elevation
Unknown
Doppler factor
Unknown
Orbital elements
Apogee altitude
32,334.793 km
Perigee altitude
8,099.511 km
Semi-major axis
26,595.289 km
Eccentricity
0.45563
Inclination
13.7872°
RAAN
345.0267°
Arg. of periapsis
56.0048°
True anomaly
304.06692°
Mean anomaly
339.3589°
Eccentric anomaly
324.0227°
Mean motion
0.50042 °/min
Orbital period
719.39 mins
BSTAR
0
Loading maneuver chart data...
Computing Atmospheric mass density...

Documentation

Showing up to 5 results
|